Terug naar catalogus

STARLINK-36173

ActiefCommunicatieVLEO
NORAD 67210·PAYLOAD·🇺🇸 United States

Gelanceerd Dec 17, 2025 vanaf Vandenberg Space Force Base

Loading…

Volgende Passages (komende 24 uur)

TLE

VersSource: CelesTrak SupGP

Epoch: Sep 15, 2026, 02:32 UTC

1 67210C 25304U   26258.10604167 -.00049747  00000+0 -41689-2 0  2588
2 67210  70.0017  56.8760 0002498 269.4179 223.4607 14.98357736    14

Volg STARLINK-36173 in realtime met AllMySat

Download on the App Store